Weather reports worldwide

Advertisment
Cassley, United Kingdom (99003): temperature & dewpoint: 11.12.2017 23:00:00 - 17.12.2017 23:00:00 (GMT)Cassley, United Kingdom (99003): precipitation: 11.12.2017 23:00:00 - 17.12.2017 23:00:00 (GMT)
Date & Time tt [°C] td [°C] rr [mm]
17.12.2017 23:00:00 - - 0,2
17.12.2017 22:00:00 4,7 2,8 0,0
17.12.2017 21:00:00 4,9 2,6 0,0
17.12.2017 20:00:00 4,6 2,4 0,0
17.12.2017 19:00:00 4,8 2,7 0,2
17.12.2017 18:00:00 4,7 2,7 0,4
17.12.2017 17:00:00 4,3 2,3 1,0
17.12.2017 16:00:00 4,4 1,9 0,6
17.12.2017 15:00:00 5,4 2,7 0,2
17.12.2017 14:00:00 5,4 2,9 0,0
17.12.2017 13:00:00 4,6 2,6 0,2
17.12.2017 12:00:00 5,8 3,9 1,0
17.12.2017 11:00:00 6,1 5,4 2,4
17.12.2017 10:00:00 7,2 6,4 0,8
17.12.2017 09:00:00 8,4 6,7 3,2
17.12.2017 08:00:00 4,7 4,1 1,0
17.12.2017 07:00:00 3,8 3,3 1,4
17.12.2017 06:00:00 3,6 3,2 0,8
17.12.2017 05:00:00 2,3 1,9 0,6
17.12.2017 04:00:00 1,6 1,3 0,0
17.12.2017 03:00:00 0,9 0,5 0,0
17.12.2017 02:00:00 0,7 0,2 0,0
17.12.2017 01:00:00 0,2 -0,3 0,0
17.12.2017 00:00:00 -0,6 -1,0 0,0
16.12.2017 23:00:00 -0,5 -0,9 0,0
16.12.2017 22:00:00 -0,8 -1,3 0,0
16.12.2017 21:00:00 -1,0 -1,5 0,0
16.12.2017 20:00:00 -0,8 -1,3 0,0
16.12.2017 19:00:00 -1,7 -2,3 0,0
16.12.2017 18:00:00 -1,2 -1,8 0,0
16.12.2017 17:00:00 -0,9 -1,6 0,0
16.12.2017 16:00:00 -1,0 -2,0 0,0
16.12.2017 15:00:00 0,2 -1,1 0,0
16.12.2017 14:00:00 1,3 -0,6 0,0
16.12.2017 13:00:00 1,0 -1,6 0,0
16.12.2017 12:00:00 1,1 -0,6 0,0
16.12.2017 11:00:00 0,6 -1,2 0,0
16.12.2017 10:00:00 0,3 -1,7 0,0
16.12.2017 09:00:00 0,0 -2,6 0,0
16.12.2017 08:00:00 0,5 -1,3 0,0
16.12.2017 07:00:00 0,9 -0,5 0,0
16.12.2017 06:00:00 0,9 -0,3 0,0
16.12.2017 05:00:00 1,2 0,2 0,4
16.12.2017 04:00:00 0,9 -0,3 0,0
16.12.2017 03:00:00 1,7 0,2 0,6
16.12.2017 02:00:00 1,0 -0,8 0,2
16.12.2017 01:00:00 1,2 -0,1 0,0
16.12.2017 00:00:00 1,4 0,5 0,6
15.12.2017 23:00:00 1,5 0,0 0,0
15.12.2017 22:00:00 1,4 -0,4 0,2
15.12.2017 21:00:00 1,6 -0,7 0,0
15.12.2017 20:00:00 2,0 -1,7 0,0
15.12.2017 19:00:00 1,5 -0,7 0,2
15.12.2017 18:00:00 - - 0,0
15.12.2017 17:00:00 1,9 -0,7 0,0
15.12.2017 16:00:00 2,2 -0,6 0,0
15.12.2017 15:00:00 1,7 0,4 0,4
15.12.2017 14:00:00 - - 0,8
15.12.2017 13:00:00 3,1 1,0 0,0
15.12.2017 12:00:00 3,3 0,7 0,0
15.12.2017 11:00:00 2,8 1,1 0,2
15.12.2017 10:00:00 2,5 0,5 0,2
15.12.2017 09:00:00 2,3 0,3 0,0
15.12.2017 08:00:00 2,2 -0,2 0,0
15.12.2017 07:00:00 3,2 0,8 0,0
15.12.2017 06:00:00 2,5 0,2 0,2
15.12.2017 05:00:00 3,8 -0,5 0,0
15.12.2017 04:00:00 4,2 0,8 0,0
15.12.2017 03:00:00 4,0 1,5 0,6
15.12.2017 02:00:00 4,6 2,1 1,0
15.12.2017 01:00:00 4,1 2,3 1,0
15.12.2017 00:00:00 3,5 2,2 2,8
14.12.2017 23:00:00 2,3 1,3 2,6
14.12.2017 22:00:00 2,3 1,0 0,8
14.12.2017 21:00:00 3,3 1,3 0,0
14.12.2017 20:00:00 3,0 1,2 0,0
14.12.2017 19:00:00 2,8 1,6 0,0
14.12.2017 18:00:00 3,1 1,7 0,0
14.12.2017 17:00:00 3,1 2,4 0,0
14.12.2017 16:00:00 2,1 1,3 0,0
14.12.2017 15:00:00 2,5 1,4 1,4
14.12.2017 14:00:00 2,6 1,2 0,6
14.12.2017 13:00:00 2,5 1,2 2,0
14.12.2017 12:00:00 2,0 0,8 3,6
14.12.2017 11:00:00 3,8 0,7 0,0
14.12.2017 10:00:00 3,0 0,6 0,0
14.12.2017 09:00:00 2,4 -0,2 0,0
14.12.2017 08:00:00 1,1 -1,0 0,0
14.12.2017 07:00:00 1,0 -0,7 0,0
14.12.2017 06:00:00 0,8 -1,2 0,0
14.12.2017 05:00:00 1,1 -1,3 0,0
14.12.2017 04:00:00 1,7 -0,8 0,0
14.12.2017 03:00:00 1,2 -1,6 0,0
14.12.2017 02:00:00 1,7 -0,5 0,2
14.12.2017 01:00:00 1,6 -0,1 0,0
14.12.2017 00:00:00 2,0 -0,2 0,4
13.12.2017 23:00:00 2,3 0,1 0,0
13.12.2017 22:00:00 1,9 -0,3 0,2
13.12.2017 21:00:00 1,3 -0,7 0,4
13.12.2017 20:00:00 2,0 -0,5 0,0
13.12.2017 19:00:00 1,9 -0,6 0,0
13.12.2017 18:00:00 2,1 -0,9 0,0
13.12.2017 17:00:00 2,2 -0,3 0,2
13.12.2017 16:00:00 2,2 -0,4 0,0
13.12.2017 15:00:00 2,5 0,0 0,0
13.12.2017 14:00:00 2,1 -0,1 1,0
13.12.2017 13:00:00 3,0 -0,8 0,0
13.12.2017 12:00:00 3,0 -0,1 0,0
13.12.2017 11:00:00 2,7 0,2 0,4
13.12.2017 10:00:00 3,0 0,4 0,2
13.12.2017 09:00:00 3,3 0,7 1,6
13.12.2017 08:00:00 2,9 1,6 1,6
13.12.2017 07:00:00 2,1 0,9 2,2
13.12.2017 06:00:00 2,2 0,0 0,0
13.12.2017 05:00:00 3,7 0,5 0,0
13.12.2017 04:00:00 3,9 0,1 0,0
13.12.2017 03:00:00 3,8 0,6 0,8
13.12.2017 02:00:00 3,2 0,2 0,4
13.12.2017 01:00:00 3,8 0,1 0,0
13.12.2017 00:00:00 3,9 0,4 0,0
12.12.2017 23:00:00 3,0 1,2 0,2
12.12.2017 22:00:00 3,4 1,5 0,8
12.12.2017 21:00:00 2,9 1,9 1,2
12.12.2017 20:00:00 1,7 1,0 0,0
12.12.2017 19:00:00 0,4 0,0 0,0
12.12.2017 18:00:00 -0,2 -0,8 0,0
12.12.2017 17:00:00 -0,7 -1,4 0,0
12.12.2017 16:00:00 -1,2 -2,0 0,0
12.12.2017 15:00:00 -2,0 -3,2 0,0
12.12.2017 14:00:00 -1,2 -2,3 0,0
12.12.2017 13:00:00 -1,2 -2,2 0,0
12.12.2017 12:00:00 -1,5 -2,4 0,0
12.12.2017 11:00:00 -2,4 -3,4 0,0
12.12.2017 10:00:00 -2,4 -3,5 0,0
12.12.2017 09:00:00 -1,7 -3,0 0,0
12.12.2017 08:00:00 -1,8 -3,4 0,0
12.12.2017 07:00:00 -2,0 -3,7 0,0
12.12.2017 06:00:00 -1,0 -2,9 0,0
12.12.2017 05:00:00 -0,3 -3,1 0,0
12.12.2017 04:00:00 1,4 -1,5 0,0
12.12.2017 03:00:00 1,3 -2,2 0,0
12.12.2017 02:00:00 2,5 -0,9 0,0
12.12.2017 01:00:00 2,2 -1,0 0,0
12.12.2017 00:00:00 1,3 -2,0 0,0
11.12.2017 23:00:00 1,6 -0,9 0,0

tt = temperature
td = dewpoint
rr = precipitation

Next stations